This is the latest recevied weather packets stored in our database for station/object SP9SOY-2. If no packets are shown the sender has not sent any weather packets the latest 10 day(s).
| Time | Temp. | Humidity | Pressure | Rain* | Wind** | Luminosity | Snow |
|---|---|---|---|---|---|---|---|
| 1777931834 | 15.56° C | 17% | - | - | - | 0 W/m² | - |
| 1777930032 | 15.56° C | 16% | - | - | - | 0 W/m² | - |
| 1777928230 | 16.11° C | 16% | - | - | - | 0 W/m² | - |
| 1777924630 | 17.78° C | 16% | - | - | - | 0 W/m² | - |
| 1777921033 | 18.89° C | 15% | - | - | - | 0 W/m² | - |
| 1777919231 | 18.89° C | 15% | - | - | - | 8 W/m² | - |
| 1777917436 | 20° C | 15% | - | - | - | 16 W/m² | - |
| 1777915633 | 21.11° C | 14% | - | - | - | 30 W/m² | - |
| 1777913834 | 21.67° C | 14% | - | - | - | 44 W/m² | - |
| 1777912031 | 23.33° C | 13% | - | - | - | 126 W/m² | - |
| 1777910232 | 23.89° C | 13% | - | - | - | 208 W/m² | - |
| 1777908432 | 24.44° C | 13% | - | - | - | 197 W/m² | - |
| 1777906633 | 25° C | 13% | - | - | - | 186 W/m² | - |
| 1777904830 | 24.44° C | 13% | - | - | - | 549 W/m² | - |
| 1777903030 | 24.44° C | 13% | - | - | - | 912 W/m² | - |
| 1777901237 | 23.89° C | 13% | - | - | - | 873 W/m² | - |
| 1777899430 | 23.89° C | 13% | - | - | - | 834 W/m² | - |
| 1777897631 | 23.89° C | 13% | - | - | - | 911 W/m² | - |
| 1777895828 | 23.33° C | 13% | - | - | - | 988 W/m² | - |
| 1777894033 | 23.33° C | 13% | - | - | - | 1052 W/m² | - |
| 1777892233 | 22.78° C | 13% | - | - | - | 1116 W/m² | - |
| 1777890429 | 22.78° C | 13% | - | - | - | 1090 W/m² | - |
| 1777888629 | 22.22° C | 14% | - | - | - | 1064 W/m² | - |
| 1777886835 | 21.67° C | 14% | - | - | - | 1028 W/m² | - |
| 1777885030 | 21.11° C | 14% | - | - | - | 992 W/m² | - |
* Rain since midnight (hover to see other rain measurements)
** Current wind speed in m/s (hover to see current wind gust speed)